Location: Newark
(59.4564°N, 26.6917°E)
Time: 07:20:16
(UTC+00:00)

deb Explorer IX - All Passes

Search period start: 22 November 2019 00:00
Search period end: 02 December 2019 00:00
Orbit: 546 x 1105 km, 38.8° (Epoch: 20 November)

Date Brightness Start Highest point End Pass type
(mag) Time Alt. Az. Time Alt. Az. Time Alt. Az.
23 Nov - 22:46:32 10° S 22:47:25 10° S 22:48:17 10° SSE night (unlit)
24 Nov - 22:23:49 10° S 22:25:20 11° S 22:26:50 10° SSE night (unlit)
25 Nov - 22:01:17 10° SSW 22:03:15 11° S 22:05:10 10° SSE night (unlit)
26 Nov - 21:38:51 10° SSW 21:41:08 12° S 21:43:22 10° SSE night (unlit)
26 Nov - 23:25:36 10° SSW 23:26:34 10° SSW 23:27:29 10° S night (unlit)
27 Nov - 21:16:29 10° SSW 21:19:02 12° S 21:21:31 10° SSE night (unlit)
27 Nov - 23:03:01 10° SSW 23:04:27 11° SSW 23:05:52 10° S night (unlit)
28 Nov - 20:54:09 10° SSW 20:56:55 12° S 20:59:36 10° SSE night (unlit)
28 Nov - 22:40:34 10° SSW 22:42:21 11° SSW 22:44:05 10° S night (unlit)
29 Nov - 20:31:52 10° SSW 20:34:46 13° S 20:37:38 10° SSE night (unlit)
29 Nov - 22:18:12 10° SSW 22:20:14 11° SSW 22:22:13 10° S night (unlit)
30 Nov - 20:09:36 10° SSW 20:12:38 13° S 20:15:37 10° SSE night (unlit)
30 Nov - 21:55:53 10° SSW 21:58:06 12° SSW 22:00:16 10° S night (unlit)
01 Dec - 19:47:23 10° SSW 19:50:29 13° S 19:53:33 10° SSE night (unlit)
01 Dec - 21:33:37 10° SSW 21:35:57 12° SSW 21:38:15 10° S night (unlit)
